Total_Precipitation_Accumulation
0.09 0.17 0.20 0.21 0.20 0.18 0.13 0.11 0.17 0.22 0.33 0.41 0.40 0.44 0.35 0.36 0.47 0.51 0.35 0.24 0.21 0.22 0.28 0.39 0.46 0.45 0.48 0.56 0.65 0.70 0.75 0.72 0.67 0.70 0.76 0.80 0.82 0.84 0.84 0.86 0.87 1.01 1.04 1.08
0.10 0.13 0.14 0.15 0.17 0.15 0.11 0.09 0.09 0.17 0.31 0.37 0.41 0.45 0.41 0.37 0.38 0.50 0.41 0.29 0.26 0.25 0.27 0.35 0.42 0.43 0.41 0.46 0.56 0.67 0.75 0.80 0.82 0.79 0.75 0.79 0.83 0.82 0.84 0.88 0.97 1.09 1.14 1.16
0.21 0.16 0.18 0.24 0.19 0.16 0.13 0.11 0.12 0.22 0.33 0.43 0.47 0.43 0.43 0.44 0.38 0.39 0.35 0.29 0.31 0.32 0.33 0.36 0.40 0.39 0.40 0.41 0.53 0.73 0.83 0.84 0.91 0.99 0.91 0.97 1.00 0.96 0.96 1.00 1.10 1.16 1.29 1.33
0.28 0.31 0.37 0.27 0.20 0.19 0.21 0.22 0.21 0.24 0.35 0.52 0.61 0.49 0.43 0.46 0.47 0.41 0.32 0.30 0.32 0.31 0.31 0.34 0.36 0.40 0.41 0.44 0.52 0.71 0.87 0.92 1.06 1.19 1.11 1.12 1.12 1.11 1.16 1.25 1.29 1.38 1.43 1.36
0.42 0.43 0.44 0.35 0.30 0.30 0.37 0.44 0.38 0.41 0.54 0.57 0.49 0.44 0.45 0.43 0.40 0.37 0.33 0.32 0.31 0.33 0.34 0.35 0.40 0.43 0.47 0.59 0.70 0.81 0.95 1.09 1.24 1.37 1.42 1.38 1.33 1.41 1.46 1.50 1.56 1.65 1.69 1.63
0.55 0.61 0.68 0.59 0.45 0.40 0.51 0.79 0.63 0.52 0.57 0.53 0.49 0.59 0.58 0.42 0.37 0.32 0.30 0.31 0.34 0.39 0.40 0.39 0.44 0.51 0.58 0.73 0.91 1.03 1.08 1.12 1.22 1.39 1.48 1.50 1.48 1.60 1.72 1.75 1.77 1.81 1.71 1.59
0.62 0.72 0.69 0.60 0.51 0.53 0.90 1.16 0.80 0.68 0.72 0.76 0.75 0.69 0.59 0.44 0.42 0.38 0.32 0.34 0.38 0.43 0.50 0.55 0.60 0.70 0.82 0.91 1.01 1.04 1.04 1.09 1.18 1.41 1.68 1.71 1.76 1.81 1.89 1.92 1.94 1.94 1.84 1.74
0.73 0.94 1.01 0.66 0.59 0.89 1.14 1.03 0.99 0.89 0.89 0.89 0.77 0.60 0.50 0.44 0.44 0.38 0.36 0.39 0.41 0.45 0.50 0.58 0.68 0.84 0.94 0.97 0.99 1.04 1.07 1.14 1.28 1.53 1.63 1.72 1.87 1.92 2.05 2.14 2.10 2.04 2.02 1.87
0.90 1.09 0.99 0.79 0.84 0.87 0.93 1.00 0.99 0.86 0.82 0.80 0.75 0.64 0.55 0.48 0.46 0.44 0.42 0.43 0.48 0.50 0.54 0.62 0.73 0.91 1.05 1.04 1.06 1.06 1.07 1.12 1.23 1.37 1.47 1.60 1.67 1.66 1.74 1.85 1.86 1.87 1.86 1.79
1.16 1.16 1.02 0.89 0.83 0.82 0.76 0.74 0.73 0.68 0.60 0.59 0.58 0.53 0.45 0.40 0.44 0.51 0.57 0.54 0.56 0.56 0.59 0.64 0.69 0.86 0.99 1.02 1.06 1.07 1.03 1.00 1.09 1.27 1.34 1.41 1.52 1.55 1.64 1.70 1.74 1.81 1.84 1.77
1.29 1.30 1.16 1.07 0.95 0.93 0.78 0.72 0.62 0.58 0.55 0.53 0.45 0.43 0.39 0.35 0.35 0.40 0.47 0.48 0.49 0.51 0.55 0.58 0.64 0.81 0.95 0.98 1.04 1.08 1.05 1.01 1.05 1.16 1.25 1.33 1.44 1.53 1.55 1.58 1.56 1.59 1.63 1.60
1.22 1.13 1.10 1.13 0.90 0.88 0.90 0.78 0.65 0.59 0.54 0.49 0.42 0.38 0.34 0.33 0.32 0.32 0.39 0.46 0.48 0.52 0.53 0.52 0.58 0.69 0.79 0.96 1.12 1.16 1.10 1.03 1.01 1.03 1.13 1.20 1.28 1.28 1.20 1.19 1.16 1.13 1.16 1.11
0.77 0.81 0.89 1.00 0.89 0.82 0.84 0.75 0.63 0.62 0.58 0.52 0.45 0.36 0.27 0.24 0.24 0.28 0.38 0.48 0.53 0.57 0.58 0.59 0.63 0.71 0.78 0.93 1.14 1.29 1.26 1.12 1.00 0.95 0.98 1.05 1.16 1.24 1.26 1.15 1.07 1.00 0.96 0.86
0.73 0.82 0.90 0.88 0.88 0.86 0.76 0.70 0.62 0.58 0.54 0.49 0.45 0.37 0.28 0.24 0.24 0.32 0.46 0.58 0.58 0.58 0.60 0.63 0.68 0.74 0.82 0.96 1.14 1.24 1.23 1.12 0.97 0.93 0.93 0.93 0.99 1.08 1.15 1.23 1.21 1.05 0.90 0.78
0.80 0.81 0.82 0.78 0.78 0.81 0.78 0.71 0.61 0.59 0.52 0.49 0.45 0.40 0.32 0.30 0.33 0.39 0.49 0.63 0.73 0.73 0.66 0.65 0.71 0.75 0.82 0.96 1.08 1.13 1.11 1.03 0.92 0.89 0.91 0.84 0.79 0.86 0.94 1.03 1.13 1.10 0.91 0.80
0.75 0.72 0.68 0.66 0.71 0.73 0.69 0.67 0.62 0.61 0.50 0.45 0.44 0.41 0.36 0.33 0.35 0.42 0.54 0.71 0.90 0.92 0.80 0.74 0.73 0.74 0.81 0.95 1.03 0.97 0.88 0.75 0.73 0.78 0.78 0.75 0.75 0.79 0.89 0.99 1.07 1.05 0.93 0.81
0.58 0.62 0.61 0.58 0.60 0.66 0.61 0.54 0.46 0.46 0.46 0.44 0.41 0.39 0.40 0.42 0.48 0.60 0.70 0.79 0.85 0.83 0.76 0.71 0.65 0.64 0.75 0.89 0.96 0.86 0.72 0.59 0.50 0.55 0.66 0.71 0.76 0.83 0.94 1.02 1.04 0.96 0.82 0.67
0.40 0.45 0.50 0.50 0.47 0.50 0.51 0.45 0.41 0.37 0.37 0.40 0.40 0.40 0.43 0.52 0.69 0.90 0.93 0.88 0.82 0.71 0.64 0.61 0.55 0.56 0.66 0.73 0.82 0.81 0.68 0.56 0.47 0.49 0.56 0.61 0.72 0.85 0.93 0.94 0.88 0.82 0.74 0.64
0.30 0.34 0.39 0.40 0.39 0.38 0.39 0.38 0.37 0.35 0.33 0.37 0.44 0.45 0.47 0.54 0.74 0.95 0.98 1.03 0.99 0.82 0.62 0.50 0.47 0.49 0.60 0.65 0.73 0.76 0.62 0.48 0.39 0.38 0.42 0.45 0.58 0.76 0.82 0.77 0.69 0.67 0.67 0.65
0.28 0.30 0.31 0.32 0.31 0.29 0.27 0.28 0.28 0.31 0.33 0.39 0.46 0.51 0.55 0.59 0.75 0.94 1.01 1.03 0.97 0.78 0.56 0.44 0.42 0.41 0.47 0.59 0.67 0.66 0.53 0.40 0.29 0.26 0.30 0.40 0.55 0.72 0.74 0.66 0.62 0.64 0.65 0.66
0.24 0.25 0.25 0.25 0.28 0.26 0.22 0.22 0.25 0.34 0.40 0.41 0.45 0.55 0.60 0.63 0.72 0.90 1.11 1.10 0.84 0.59 0.45 0.41 0.39 0.38 0.43 0.57 0.62 0.58 0.49 0.40 0.31 0.26 0.30 0.43 0.61 0.72 0.65 0.59 0.58 0.59 0.57 0.61
0.22 0.25 0.27 0.25 0.26 0.25 0.23 0.23 0.27 0.37 0.48 0.48 0.45 0.48 0.58 0.67 0.74 0.79 0.87 1.00 0.86 0.64 0.44 0.38 0.37 0.39 0.44 0.56 0.56 0.49 0.45 0.42 0.36 0.32 0.37 0.49 0.62 0.66 0.61 0.57 0.60 0.57 0.56 0.59
0.22 0.23 0.23 0.22 0.22 0.21 0.20 0.22 0.26 0.38 0.54 0.56 0.53 0.51 0.58 0.67 0.77 0.92 0.89 0.79 0.78 0.69 0.49 0.36 0.33 0.38 0.45 0.51 0.52 0.45 0.46 0.44 0.38 0.36 0.39 0.46 0.52 0.55 0.57 0.59 0.60 0.56 0.56 0.56
0.21 0.19 0.19 0.19 0.19 0.21 0.23 0.26 0.28 0.36 0.48 0.47 0.40 0.37 0.46 0.61 0.64 0.65 0.74 0.79 0.75 0.69 0.54 0.40 0.31 0.33 0.41 0.44 0.48 0.50 0.53 0.47 0.39 0.34 0.35 0.41 0.48 0.53 0.61 0.65 0.64 0.60 0.59 0.56
0.21 0.21 0.19 0.21 0.25 0.28 0.30 0.34 0.38 0.45 0.54 0.47 0.34 0.27 0.32 0.48 0.61 0.58 0.59 0.64 0.66 0.62 0.52 0.43 0.38 0.39 0.42 0.48 0.53 0.55 0.51 0.41 0.34 0.33 0.37 0.47 0.51 0.55 0.61 0.63 0.61 0.62 0.63 0.62
0.23 0.22 0.22 0.24 0.27 0.29 0.31 0.40 0.48 0.56 0.68 0.64 0.46 0.30 0.28 0.35 0.45 0.51 0.57 0.61 0.64 0.65 0.55 0.47 0.44 0.47 0.50 0.55 0.55 0.51 0.45 0.40 0.38 0.40 0.44 0.50 0.52 0.54 0.59 0.61 0.57 0.60 0.62 0.62
0.24 0.22 0.24 0.26 0.29 0.28 0.28 0.34 0.44 0.61 0.79 0.80 0.57 0.33 0.29 0.34 0.44 0.51 0.55 0.62 0.67 0.69 0.61 0.50 0.47 0.49 0.52 0.53 0.51 0.45 0.38 0.34 0.37 0.40 0.41 0.42 0.46 0.54 0.61 0.63 0.58 0.57 0.59 0.58